TimeMST,TemperatureF,Dew PointF,Humidity,Sea Level PressureIn,VisibilityMPH,Wind Direction,Wind SpeedMPH,Gust SpeedMPH,PrecipitationIn,Events,Conditions,WindDirDegrees,DateUTC
12:15 AM,6.8,1.4,79,29.89,10.0,WNW,12.7,-,N/A,,Clear,290,2012-11-11 07:15:00
12:35 AM,8.6,1.4,73,29.89,10.0,WNW,19.6,23.0,N/A,,Clear,290,2012-11-11 07:35:00
12:55 AM,8.6,1.4,73,29.89,10.0,West,12.7,-,N/A,,Scattered Clouds,280,2012-11-11 07:55:00
1:15 AM,8.6,3.2,79,29.89,10.0,WNW,15.0,-,N/A,,Mostly Cloudy,290,2012-11-11 08:15:00
1:35 AM,8.6,1.4,73,29.90,10.0,WNW,16.1,-,N/A,,Scattered Clouds,290,2012-11-11 08:35:00
1:55 AM,8.6,3.2,79,29.90,4.0,WNW,13.8,-,N/A,,Clear,300,2012-11-11 08:55:00
2:15 AM,8.6,3.2,79,29.91,10.0,WNW,11.5,-,N/A,,Partly Cloudy,300,2012-11-11 09:15:00
2:35 AM,8.6,3.2,79,29.91,10.0,WNW,11.5,-,N/A,,Partly Cloudy,300,2012-11-11 09:35:00
2:55 AM,8.6,3.2,79,29.90,7.0,WNW,11.5,-,N/A,,Clear,300,2012-11-11 09:55:00
3:15 AM,8.6,3.2,79,29.89,8.0,WNW,16.1,-,N/A,,Clear,290,2012-11-11 10:15:00
3:35 AM,8.6,1.4,73,29.89,10.0,WNW,15.0,21.9,N/A,,Clear,290,2012-11-11 10:35:00
3:55 AM,8.6,1.4,73,29.89,10.0,WNW,15.0,-,N/A,,Clear,290,2012-11-11 10:55:00
4:15 AM,8.6,1.4,73,29.90,10.0,WNW,15.0,-,N/A,,Clear,290,2012-11-11 11:15:00
4:35 AM,8.6,3.2,79,29.90,10.0,WNW,15.0,21.9,N/A,,Clear,290,2012-11-11 11:35:00
5:15 AM,8.6,3.2,79,29.90,6.0,WNW,15.0,23.0,N/A,,Clear,290,2012-11-11 12:15:00
5:35 AM,8.6,3.2,79,29.89,4.0,WNW,18.4,-,N/A,,Clear,290,2012-11-11 12:35:00
5:55 AM,8.6,3.2,79,29.90,7.0,WNW,13.8,23.0,N/A,,Clear,300,2012-11-11 12:55:00
6:15 AM,8.6,1.4,73,29.91,7.0,WNW,19.6,23.0,N/A,,Clear,290,2012-11-11 13:15:00
6:35 AM,8.6,1.4,73,29.91,8.0,WNW,17.3,-,N/A,,Clear,300,2012-11-11 13:35:00
6:55 AM,8.6,3.2,79,29.92,5.0,WNW,15.0,-,N/A,,Clear,290,2012-11-11 13:55:00
7:15 AM,8.6,3.2,79,29.92,5.0,WNW,15.0,19.6,N/A,,Clear,290,2012-11-11 14:15:00
7:35 AM,8.6,3.2,79,29.92,5.0,WNW,19.6,24.2,N/A,,Clear,300,2012-11-11 14:35:00
7:55 AM,8.6,3.2,79,29.93,8.0,WNW,18.4,25.3,N/A,,Clear,300,2012-11-11 14:55:00
8:15 AM,8.6,1.4,73,29.93,10.0,WNW,17.3,26.5,N/A,,Clear,300,2012-11-11 15:15:00
8:35 AM,10.4,3.2,73,29.94,10.0,NW,17.3,24.2,N/A,,Clear,310,2012-11-11 15:35:00
8:55 AM,10.4,3.2,73,29.95,5.0,WNW,15.0,-,N/A,,Clear,300,2012-11-11 15:55:00
9:15 AM,10.4,3.2,73,29.94,3.0,WNW,19.6,26.5,N/A,,Clear,300,2012-11-11 16:15:00
9:35 AM,10.4,5.0,79,29.95,5.0,WNW,20.7,25.3,N/A,,Clear,300,2012-11-11 16:35:00
9:55 AM,10.4,3.2,73,29.95,4.0,WNW,18.4,-,N/A,,Clear,290,2012-11-11 16:55:00
10:15 AM,10.4,5.0,79,29.96,5.0,WNW,18.4,25.3,N/A,,Clear,290,2012-11-11 17:15:00
10:35 AM,12.2,5.0,73,29.97,6.0,WNW,19.6,25.3,N/A,,Scattered Clouds,290,2012-11-11 17:35:00
10:55 AM,12.2,6.8,79,29.97,4.0,WNW,17.3,-,N/A,,Scattered Clouds,290,2012-11-11 17:55:00
11:15 AM,12.2,5.0,73,29.97,3.0,WNW,19.6,26.5,N/A,,Partly Cloudy,290,2012-11-11 18:15:00
11:35 AM,12.2,6.8,79,29.96,4.0,WNW,23.0,27.6,N/A,,Partly Cloudy,290,2012-11-11 18:35:00
11:55 AM,12.2,6.8,79,29.97,10.0,WNW,17.3,24.2,N/A,,Clear,290,2012-11-11 18:55:00
12:15 PM,12.2,6.8,79,29.97,10.0,West,19.6,25.3,N/A,,Clear,280,2012-11-11 19:15:00
12:35 PM,12.2,6.8,79,29.97,10.0,WNW,21.9,29.9,N/A,,Clear,290,2012-11-11 19:35:00
12:55 PM,12.2,6.8,79,29.97,10.0,WNW,21.9,27.6,N/A,,Clear,290,2012-11-11 19:55:00
1:35 PM,12.2,6.8,79,29.97,10.0,WNW,21.9,28.8,N/A,,Clear,290,2012-11-11 20:35:00
1:55 PM,14.0,6.8,73,29.96,10.0,WNW,19.6,27.6,N/A,,Partly Cloudy,290,2012-11-11 20:55:00
2:15 PM,14.0,8.6,79,29.97,10.0,WNW,23.0,29.9,N/A,,Partly Cloudy,290,2012-11-11 21:15:00
2:35 PM,12.2,6.8,79,29.98,10.0,WNW,20.7,27.6,N/A,,Partly Cloudy,290,2012-11-11 21:35:00
2:55 PM,12.2,6.8,79,29.99,10.0,WNW,19.6,28.8,N/A,,Clear,290,2012-11-11 21:55:00
3:15 PM,12.2,6.8,79,30.00,10.0,WNW,17.3,25.3,N/A,,Clear,290,2012-11-11 22:15:00
3:35 PM,12.2,6.8,79,30.00,10.0,WNW,17.3,-,N/A,,Clear,290,2012-11-11 22:35:00
3:55 PM,12.2,6.8,79,30.01,10.0,WNW,15.0,-,N/A,,Clear,290,2012-11-11 22:55:00
4:15 PM,12.2,6.8,79,30.01,10.0,WNW,18.4,21.9,N/A,,Clear,290,2012-11-11 23:15:00
4:35 PM,12.2,6.8,79,30.01,10.0,WNW,16.1,-,N/A,,Clear,290,2012-11-11 23:35:00
4:55 PM,12.2,6.8,79,30.02,10.0,WNW,12.7,-,N/A,,Clear,290,2012-11-11 23:55:00
5:15 PM,12.2,6.8,79,30.02,10.0,WNW,12.7,-,N/A,,Mostly Cloudy,290,2012-11-12 00:15:00
5:35 PM,12.2,6.8,79,30.03,10.0,WNW,15.0,-,N/A,,Scattered Clouds,290,2012-11-12 00:35:00
5:55 PM,12.2,6.8,79,30.04,10.0,WNW,12.7,-,N/A,,Mostly Cloudy,290,2012-11-12 00:55:00
6:15 PM,10.4,5.0,79,30.04,10.0,WNW,11.5,-,N/A,,Partly Cloudy,300,2012-11-12 01:15:00
6:55 PM,8.6,3.2,79,30.04,10.0,WNW,9.2,-,N/A,,Clear,290,2012-11-12 01:55:00
7:15 PM,6.8,-4.0,61,30.05,10.0,West,3.5,-,N/A,,Clear,270,2012-11-12 02:15:00
7:35 PM,6.8,3.2,85,30.05,10.0,Calm,Calm,-,N/A,,Clear,0,2012-11-12 02:35:00
7:55 PM,6.8,-0.4,72,30.05,10.0,West,5.8,-,N/A,,Clear,270,2012-11-12 02:55:00
8:15 PM,5.0,-0.4,78,30.05,10.0,West,6.9,-,N/A,,Clear,280,2012-11-12 03:15:00
8:35 PM,6.8,-0.4,72,30.06,10.0,West,9.2,-,N/A,,Clear,280,2012-11-12 03:35:00
8:55 PM,5.0,-0.4,78,30.06,10.0,West,4.6,-,N/A,,Clear,260,2012-11-12 03:55:00
9:35 PM,5.0,-0.4,78,30.06,10.0,SSW,3.5,-,N/A,,Clear,200,2012-11-12 04:35:00
9:55 PM,3.2,-0.4,85,30.06,10.0,Calm,Calm,-,N/A,,Clear,0,2012-11-12 04:55:00
10:15 PM,5.0,1.4,85,30.06,10.0,SSW,3.5,-,N/A,,Clear,210,2012-11-12 05:15:00
10:35 PM,3.2,-5.8,66,30.06,10.0,SSW,3.5,-,N/A,,Clear,200,2012-11-12 05:35:00
10:55 PM,3.2,-5.8,66,30.07,10.0,SW,3.5,-,N/A,,Clear,230,2012-11-12 05:55:00
11:15 PM,1.4,-2.2,85,30.07,10.0,WSW,3.5,-,N/A,,Clear,250,2012-11-12 06:15:00
11:35 PM,-2.2,-9.4,71,30.07,10.0,SW,6.9,-,N/A,,Clear,230,2012-11-12 06:35:00
11:55 PM,-0.4,-5.8,78,30.07,10.0,SW,9.2,-,N/A,,Clear,230,2012-11-12 06:55:00